[[{"header":{"parameterUnit":"m.s-1","parameterCategory":1,"la1":30.2992,"la2":30.254,"lo1":-89.0895,"lo2":-89.0443,"dy":0.0025,"dx":0.0025,"nx":19,"ny":19,"refTime":"2026-05-11T21:00:00:Z","depth":0,"parameterNumber":2,"parameterNumberName":"U-component_of_WINDS"},"data":[0,0,0,-4.7448,-4.745,-4.7491,-4.7491,-4.7562,-4.7563,0,0,0,0,0,0,0,0,0,0,0,-4.7446,-4.7447,-4.7448,-4.745,-4.7491,-4.7491,-4.7562,-4.7563,0,0,0,0,0,0,0,0,0,0,0,-4.7446,-4.7447,-4.7448,-4.745,-4.7491,-4.7491,-4.7562,-4.7524,0,0,0,0,0,0,0,0,0,0,-4.7481,-4.7488,-4.7446,-4.7448,-4.745,-4.7491,-4.7491,-4.7522,-4.7527,-4.7551,0,-4.7574,0,-4.757,-4.7569,-4.7569,0,0,0,-4.7443,-4.7484,-4.7487,-4.7448,-4.7451,-4.7491,-4.747,-4.7525,-4.753,-4.7557,-4.7575,-4.7577,-4.7571,-4.7569,-4.757,-4.7732,-4.7734,0,0,-4.744,-4.7459,-4.7483,-4.749,-4.7484,-4.7469,-4.7472,-4.7527,-4.7548,-4.7575,-4.7578,-4.7572,-4.757,-4.757,-4.7731,-4.7733,0,0,0,-4.7439,-4.7457,-4.7458,-4.7488,-4.7494,-4.747,-4.7473,-4.7546,-4.7544,-4.7579,-4.7573,-4.757,-4.7571,-4.773,-4.7732,-4.7806,0,0,0,-4.7437,-4.7456,-4.7457,-4.7469,-4.7493,-4.752,-4.7491,-4.7541,-4.7546,-4.7572,-4.757,-4.7572,-4.7729,-4.7731,-4.7801,-4.7838,0,0,0,-4.744,-4.7456,-4.7466,-4.747,-4.7488,-4.7519,-4.752,-4.7541,-4.7543,-4.7569,-4.7572,-4.7728,-4.7731,-4.7797,-4.7831,-4.7889,0,0,0,-4.7449,-4.7529,-4.7467,-4.7555,-4.7488,-4.7563,-4.752,-4.7575,-4.7606,-4.7571,-4.7729,-4.7732,-4.7796,-4.7827,-4.7885,-4.7943,-4.7968,0,0,-4.7561,-4.7543,-4.7593,-4.7539,-4.7631,-4.7556,-4.7658,-4.7668,-4.7654,-4.7707,-4.7711,-4.7803,-4.7831,-4.7888,-4.8098,-4.8118,0,0,0,-4.7635,-4.7672,-4.7692,-4.7723,-4.7733,-4.7746,-4.7739,-4.7744,-4.7789,-4.7685,-4.7837,-4.7853,-4.7886,-4.7913,-4.793,-4.7959,-4.7744,-4.7744,-4.7744,-4.7821,-4.7799,-4.7882,-4.7866,-4.7896,-4.7889,-4.7913,-4.7918,-4.7885,-4.7922,-4.7938,-4.8068,-4.8101,-4.8113,-4.8144,-4.7965,-4.7965,-4.7965,-4.7966,-4.7985,-4.8036,-4.7992,-4.8057,-4.8034,-4.8089,-4.8087,-4.8062,-4.8112,-4.8053,-4.8081,-4.8022,-4.8136,-4.8162,-4.7971,-4.797,-4.7969,-4.7969,-4.7968,-4.8107,-4.8127,-4.8131,-4.8176,-4.8213,-4.8193,-4.8244,-4.8219,-4.8197,-4.8225,-4.8242,-4.8241,-4.8239,-4.8234,-4.8235,-4.8235,-4.8236,-4.8236,-4.8236,-4.8232,-4.8235,-4.828,-4.8299,-4.8318,-4.8339,-4.8335,-4.8352,-4.8366,-4.8345,-4.8345,-4.8312,-4.815,-4.8112,-4.8243,-4.8242,-4.8241,-4.824,-4.824,-4.8412,-4.8368,-4.8438,-4.8456,-4.8479,-4.852,-4.8489,-4.8528,-4.8539,-4.8565,-4.8526,-4.8409,-4.839,-4.8376,-4.8345,-4.8528,-4.8528,-4.8528,-4.8528,-4.8517,-4.8504,-4.8572,-4.8604,-4.8632,-4.8612,-4.8695,-4.8694,-4.8685,-4.8692,-4.8661,-4.8616,-4.8603,-4.8592,-4.8573,-4.8544,-4.8774,-4.8774,-4.8774,-4.8628,-4.8617,-4.8692,-4.8683,-4.87,-4.8716,-4.8794,-4.8834,-4.8815,-4.8784,-4.8697,-4.8687,-4.8614,-4.8591,-4.856,-4.8531,-4.8476,0,0]},{"header":{"parameterUnit":"m.s-1","parameterCategory":1,"la1":30.2992,"la2":30.254,"lo1":-89.0895,"lo2":-89.0443,"dy":0.0025,"dx":0.0025,"nx":19,"ny":19,"refTime":"2026-05-11T21:00:00:Z","depth":0,"parameterNumber":3,"parameterNumberName":"V-component_of_WINDS"},"data":[0,0,0,-2.7459,-2.746,-2.751,-2.751,-2.7591,-2.7592,0,0,0,0,0,0,0,0,0,0,0,-2.7455,-2.7456,-2.7458,-2.746,-2.751,-2.751,-2.7591,-2.7592,0,0,0,0,0,0,0,0,0,0,0,-2.7454,-2.7456,-2.7457,-2.746,-2.751,-2.751,-2.7591,-2.7547,0,0,0,0,0,0,0,0,0,0,-2.7495,-2.7503,-2.7455,-2.7457,-2.7461,-2.751,-2.751,-2.7544,-2.755,-2.7576,0,-2.7603,0,-2.7599,-2.7599,-2.7599,0,0,0,-2.7452,-2.7499,-2.7502,-2.7457,-2.7461,-2.751,-2.7485,-2.7547,-2.7553,-2.7583,-2.7604,-2.7607,-2.7601,-2.7599,-2.76,-2.7783,-2.7784,0,0,-2.7449,-2.747,-2.7498,-2.7507,-2.75,-2.7483,-2.7487,-2.755,-2.7575,-2.7605,-2.7608,-2.7602,-2.76,-2.7601,-2.7782,-2.7784,0,0,0,-2.7447,-2.7468,-2.747,-2.7504,-2.7511,-2.7485,-2.7489,-2.7572,-2.757,-2.7609,-2.7603,-2.7601,-2.7602,-2.7781,-2.7783,-2.7867,0,0,0,-2.7445,-2.7467,-2.7469,-2.7482,-2.7511,-2.7542,-2.7509,-2.7566,-2.7573,-2.7602,-2.7601,-2.7603,-2.7779,-2.7782,-2.7861,-2.7904,0,0,0,-2.7448,-2.7467,-2.7478,-2.7483,-2.7505,-2.7541,-2.7543,-2.7567,-2.7569,-2.7599,-2.7603,-2.7778,-2.7781,-2.7857,-2.7896,-2.796,0,0,0,-2.7457,-2.7551,-2.748,-2.7582,-2.7505,-2.7592,-2.7542,-2.7605,-2.7641,-2.7601,-2.7779,-2.7782,-2.7855,-2.7891,-2.7955,-2.802,-2.8048,0,0,-2.7588,-2.7568,-2.7626,-2.7564,-2.7669,-2.7582,-2.7699,-2.7712,-2.7694,-2.7755,-2.7759,-2.7863,-2.7895,-2.7959,-2.8194,-2.8217,0,0,0,-2.7675,-2.7717,-2.774,-2.7775,-2.7787,-2.7801,-2.7792,-2.7797,-2.7847,-2.773,-2.7901,-2.792,-2.7957,-2.7987,-2.8006,-2.8037,-2.7796,-2.7796,-2.7796,-2.7891,-2.7864,-2.796,-2.7939,-2.7974,-2.7964,-2.799,-2.7994,-2.7956,-2.7997,-2.8016,-2.8162,-2.8198,-2.8213,-2.8245,-2.8045,-2.8046,-2.8046,-2.8046,-2.8082,-2.8139,-2.8086,-2.8161,-2.8132,-2.8193,-2.8187,-2.8158,-2.8212,-2.8146,-2.8176,-2.811,-2.8238,-2.8266,-2.8052,-2.8051,-2.8051,-2.805,-2.805,-2.8223,-2.8246,-2.825,-2.8298,-2.8338,-2.8312,-2.8367,-2.8337,-2.8309,-2.834,-2.8358,-2.8356,-2.8354,-2.835,-2.835,-2.8351,-2.8351,-2.8352,-2.8352,-2.837,-2.8371,-2.8421,-2.8441,-2.846,-2.8481,-2.8471,-2.8488,-2.8501,-2.8475,-2.8475,-2.8435,-2.8255,-2.8212,-2.836,-2.8358,-2.8357,-2.8357,-2.8356,-2.8579,-2.8527,-2.8604,-2.8623,-2.8644,-2.8687,-2.8647,-2.8685,-2.8695,-2.8723,-2.8675,-2.8546,-2.8524,-2.8508,-2.8473,-2.8679,-2.8679,-2.8679,-2.8679,-2.8701,-2.8686,-2.8759,-2.8791,-2.8819,-2.8792,-2.888,-2.8873,-2.8857,-2.8862,-2.8826,-2.8776,-2.8761,-2.8748,-2.8727,-2.8694,-2.8952,-2.8952,-2.8952,-2.883,-2.8816,-2.8898,-2.8882,-2.8895,-2.8908,-2.8991,-2.903,-2.9001,-2.8963,-2.8865,-2.8854,-2.8771,-2.8745,-2.8709,-2.8677,-2.8616,0,0]}]]